Kaneohe MCBH, HI

5:27 AM HST on June 22, 2017 (GMT -1000)
Kaneohe Bay Marine Corps Air Facility

Weather History for PHNG - March, 2013

Change the Weather History Date:

Friday, March 15, 2013

  Actual Average Record
Temperature  
Mean Temperature 75 °F -  
Max Temperature 81 °F 75 °F 81 °F (2013)
Min Temperature 69 °F 67 °F 64 °F (2005)
Cooling Degree Days 10    
Growing Degree Days 25 (Base 50)    
Moisture  
Dew Point 60 °F    
Average Humidity 67    
Maximum Humidity 99    
Minimum Humidity 40    
Precipitation  
Precipitation 0.00 in - - ()
Sea Level Pressure  
Sea Level Pressure 29.94 in    
Wind  
Wind Speed 3 mph (NNW)    
Max Wind Speed 10 mph    
Max Gust Speed -    
Visibility 7 miles    
Events Rain    
Averages and records for this station are not official NWS values.
T = Trace of Precipitation, MM = Missing Value Source: NWS Daily Summary

Daily Weather History Graph

Daily Weather History Graph

Search for Another Location

Airport or City:

Trip Planner

Search our weather history database for the weather conditions in past years. The results will help you decide how hot, cold, wet, or windy it might be!

Date:

Astronomy

Mar. 15, 2013 Rise Set
Actual Time 6:39 AM HST 6:40 PM HST
Civil Twilight 6:17 AM HST 7:02 PM HST
Nautical Twilight 5:51 AM HST 7:28 PM HST
Astronomical Twilight 5:25 AM HST 7:54 PM HST
Moon 9:10 AM HST (3/15) 10:29 PM HST (3/15)
Length of Visible Light 12h 45m
Length of Day
12h 01m
Waxing Crescent, 17% of the Moon is Illuminated
Mar 15
Waxing Crescent
Mar 19
First Quarter
Mar 26
Full
Apr 2
Last Quarter
Apr 9
New

Hourly Weather History & Observations

Time (HST) Temp. Heat Index Dew Point Humidity Pressure Visibility Wind Dir Wind Speed Gust Speed Precip Events Conditions
12:57 AM - - - N/A% 29.98 in - Calm Calm - N/A   Clear
1:57 AM - - - N/A% 29.96 in - Calm Calm - N/A   Clear
2:00 AM - - - N/A% - - North - - N/A   Unknown
2:57 AM - - - N/A% 29.95 in - Calm Calm - N/A   Clear
3:57 AM 69.8 °F - 63.0 °F 79% 29.93 in 7.0 mi Calm Calm - N/A   Partly Cloudy
4:57 AM 69.8 °F - 64.0 °F 82% 29.93 in 7.0 mi Calm Calm - N/A   Scattered Clouds
5:57 AM 69.8 °F - 66.9 °F 91% 29.94 in 7.0 mi South 3.5 mph - N/A   Scattered Clouds
6:57 AM 69.8 °F - 64.9 °F 84% 29.95 in 7.0 mi NE 3.5 mph - N/A   Scattered Clouds
7:57 AM 69.8 °F - 66.0 °F 88% 29.96 in 7.0 mi Calm Calm - N/A   Scattered Clouds
8:00 AM - - - N/A% - - North - - N/A   Unknown
8:57 AM 69.8 °F - 61.0 °F 73% 29.97 in 7.0 mi West 6.9 mph - N/A   Scattered Clouds
9:57 AM 69.8 °F - 55.0 °F 59% 29.97 in 7.0 mi SSW 6.9 mph - N/A   Scattered Clouds
10:57 AM 79.0 °F - 53.1 °F 40% 29.96 in 7.0 mi Calm Calm - N/A   Scattered Clouds
11:57 AM 81.0 °F 80.7 °F 55.0 °F 41% 29.95 in 7.0 mi Variable 5.8 mph - N/A   Mostly Cloudy
12:57 PM 81.0 °F 80.7 °F 55.0 °F 41% 29.92 in 7.0 mi NE 9.2 mph - N/A   Mostly Cloudy
1:57 PM 80.6 °F 81.1 °F 59.0 °F 48% 29.91 in 7.0 mi NE 6.9 mph - N/A   Partly Cloudy
2:57 PM 77.9 °F - 57.0 °F 48% 29.89 in 7.0 mi ENE 4.6 mph - N/A   Mostly Cloudy
3:57 PM 73.9 °F - 61.0 °F 64% 29.89 in 7.0 mi NNW 3.5 mph - N/A   Mostly Cloudy
4:57 PM 73.9 °F - 62.1 °F 66% 29.90 in 7.0 mi WNW 10.4 mph - N/A   Mostly Cloudy
5:57 PM 73.9 °F - 59.0 °F 59% 29.91 in 7.0 mi WNW 10.4 mph - N/A   Mostly Cloudy
6:57 PM 72.1 °F - 55.0 °F 55% 29.92 in 7.0 mi West 9.2 mph - N/A   Mostly Cloudy
7:57 PM 72.1 °F - 54.0 °F 53% 29.95 in 7.0 mi Calm Calm - N/A   Overcast
8:57 PM 70.9 °F - 55.9 °F 59% 29.96 in 7.0 mi North 8.1 mph - N/A   Mostly Cloudy
9:57 PM 70.9 °F - 62.1 °F 74% 29.98 in 7.0 mi NNW 9.2 mph - N/A   Mostly Cloudy
10:57 PM 70.7 °F - 62.1 °F 74% 29.98 in 6.0 mi North 6.9 mph - 0.00 in Rain Light Rain
11:04 PM 71.6 °F - 69.8 °F 94% 29.99 in 6.0 mi North 4.6 mph - 0.00 in Rain Light Rain
11:57 PM 69.3 °F - 69.1 °F 99% 29.96 in 7.0 mi WSW 6.9 mph - 0.00 in   Mostly Cloudy